Social login voor leden:

1. METAR EBOS

METAR EBOS 261850Z 18011KT 9999 FEW033 BKN043 07/05 Q1011 TEMPO 4500 RA BKN009

2. TAF EBOS

TAF EBOS 261850Z 18011KT 9999 FEW033 BKN043 07/05 Q1011 TEMPO 4500 RA BKN009

3. NOTAMS EBOS

Klik hier voor een overzicht van de notams.

Deze pagina promoten

Noordzee Vliegclub - Nieuwpoortsesteenweg 947 8400 Oostende - Tel 059 30 04 79 - Dit e-mailadres wordt beveiligd tegen spambots. JavaScript dient ingeschakeld te zijn om het te bekijken.

 - Copyright 2017